YACHTS Weather Reports


time (UTC)temp
F
wind
direction
speed
knots
gust
knots
rain 1hr
in
rain 24hr
in
rain mn
in
humidity
%
barometer
mb
20260831192208 59 284 6.1 7.0 0.00 0.00 0.00 88 1010.9
20260831191655 60 291 4.3 7.0 0.00 0.00 0.00 88 1010.8
20260831191142 61 305 5.2 7.0 0.00 0.00 0.00 88 1010.8
20260831190629 60 292 4.3 6.1 0.00 0.00 0.00 89 1010.8
20260831190116 60 295 5.2 6.1 0.00 0.00 0.00 89 1010.8
20260831185603 60 308 1.7 6.1 0.00 0.00 0.00 89 1010.9
20260831185050 60 287 4.3 5.2 0.00 0.00 0.00 89 1011.0
20260831184537 61 292 4.3 7.0 0.00 0.00 0.00 89 1011.0
20260831184024 62 298 4.3 7.0 0.00 0.00 0.00 89 1011.1
20260831183511 62 305 4.3 7.0 0.00 0.00 0.00 89 1011.1
20260831183000 62 285 0.0 6.1 0.00 0.00 0.00 91 1011.2
20260831182445 61 268 0.0 6.1 0.00 0.00 0.00 91 1011.2
20260831180353 60 303 3.5 5.2 0.00 0.00 0.00 92 1011.3
20260831175840 60 250 1.7 5.2 0.00 0.00 0.00 92 1011.3
20260831174814 59 280 0.0 4.3 0.00 0.00 0.00 92 1011.3
20260831174301 59 298 0.0 4.3 0.00 0.00 0.00 93 1011.3
20260831173748 58 0 0.0 4.3 0.00 0.00 0.00 93 1011.3
20260831173235 57 298 0.0 4.3 0.00 0.00 0.00 93 1011.3
20260831172722 57 294 2.6 4.3 0.00 0.00 0.00 93 1011.3
20260831172210 56 308 1.7 4.3 0.00 0.00 0.00 93 1011.2
20260831171656 56 0 0.0 0.0 0.00 0.00 0.00 94 1011.2
20260831171143 56 0 0.0 0.0 0.00 0.00 0.00 94 1011.2
20260831170630 56 0 0.0 0.0 0.00 0.00 0.00 94 1011.3
20260831170117 56 0 0.0 0.0 0.00 0.00 0.00 94 1011.2
20260831165604 56 0 0.0 0.0 0.00 0.00 0.00 94 1011.1
20260831165051 56 0 0.0 0.0 0.00 0.00 0.00 94 1011.2
20260831164538 55 0 0.0 0.0 0.00 0.00 0.00 94 1011.1
20260831164025 55 0 0.0 0.0 0.00 0.00 0.00 94 1011.1
20260831163512 55 0 0.0 0.0 0.00 0.00 0.00 94 1011.2
20260831162446 55 0 0.0 0.0 0.00 0.00 0.00 94 1011.3
20260831161933 55 0 0.0 0.0 0.00 0.00 0.00 94 1011.3
20260831161420 54 0 0.0 0.0 0.00 0.00 0.00 95 1011.2
20260831160907 54 0 0.0 0.0 0.00 0.00 0.00 95 1011.3
20260831160354 54 0 0.0 0.0 0.00 0.00 0.00 95 1011.3
20260831155841 54 0 0.0 0.0 0.00 0.01 0.00 95 1011.3
20260831154815 53 0 0.0 0.0 0.00 0.01 0.00 95 1011.4
20260831154302 53 0 0.0 0.0 0.00 0.01 0.00 95 1011.4
20260831153749 53 0 0.0 0.0 0.00 0.01 0.00 95 1011.4
20260831153236 53 0 0.0 0.0 0.00 0.01 0.00 95 1011.4
20260831152723 53 0 0.0 0.0 0.00 0.01 0.00 95 1011.3
20260831152210 53 0 0.0 0.0 0.00 0.01 0.00 95 1011.4
20260831151657 53 0 0.0 0.0 0.00 0.01 0.00 95 1011.4
20260831151144 52 0 0.0 0.0 0.00 0.01 0.00 95 1011.4
20260831150631 52 0 0.0 0.0 0.00 0.01 0.00 95 1011.5
20260831150117 52 0 0.0 0.0 0.00 0.01 0.00 95 1011.5
20260831145606 52 0 0.0 0.0 0.00 0.01 0.00 95 1011.5
20260831145052 52 0 0.0 0.0 0.00 0.01 0.00 95 1011.5
20260831144539 52 0 0.0 0.0 0.00 0.01 0.00 95 1011.5
20260831144025 52 0 0.0 0.0 0.00 0.01 0.00 95 1011.4
20260831143513 52 0 0.0 0.0 0.00 0.01 0.00 95 1011.3
20260831143000 51 0 0.0 0.0 0.00 0.01 0.00 96 1011.2
20260831141933 51 0 0.0 0.0 0.00 0.01 0.00 95 1011.1
20260831141420 51 0 0.0 0.0 0.00 0.01 0.00 95 1011.1
20260831140907 51 0 0.0 0.0 0.00 0.01 0.00 96 1011.0
20260831140354 51 0 0.0 0.0 0.00 0.01 0.00 96 1011.0
20260831135841 51 0 0.0 0.0 0.00 0.01 0.00 95 1010.9
20260831135329 51 0 0.0 0.0 0.00 0.01 0.00 96 1010.9
20260831134815 51 0 0.0 0.0 0.00 0.01 0.00 96 1010.8
20260831134302 51 0 0.0 0.0 0.00 0.01 0.00 95 1010.9
20260831133749 51 0 0.0 0.0 0.00 0.01 0.00 95 1010.9
20260831133236 51 0 0.0 0.0 0.00 0.01 0.00 95 1010.9
20260831132723 51 0 0.0 0.0 0.00 0.01 0.00 95 1011.0
20260831132210 51 0 0.0 0.0 0.00 0.01 0.00 95 1011.0
20260831131657 51 0 0.0 0.0 0.00 0.01 0.00 95 1011.0
20260831131144 51 0 0.0 0.0 0.00 0.01 0.00 96 1011.1
20260831130631 51 0 0.0 0.0 0.00 0.01 0.00 95 1011.1
20260831130118 52 0 0.0 0.0 0.00 0.01 0.00 95 1011.1
20260831125605 51 0 0.0 0.0 0.00 0.01 0.00 95 1011.1
20260831125052 52 0 0.0 0.0 0.00 0.01 0.00 95 1011.1
20260831124539 52 0 0.0 0.0 0.00 0.01 0.00 95 1011.2
20260831124026 51 0 0.0 0.0 0.00 0.01 0.00 95 1011.2
20260831123513 51 0 0.0 0.0 0.00 0.01 0.00 95 1011.2
20260831123000 51 0 0.0 0.0 0.00 0.01 0.00 95 1011.2
20260831122448 51 0 0.0 0.0 0.00 0.01 0.00 95 1011.2
20260831121934 51 0 0.0 0.0 0.00 0.01 0.00 95 1011.3
20260831121421 51 0 0.0 0.0 0.00 0.01 0.00 95 1011.4
20260831120908 51 0 0.0 0.0 0.00 0.01 0.00 95 1011.4
20260831120356 51 0 0.0 0.0 0.00 0.01 0.00 95 1011.4
20260831114817 52 0 0.0 0.0 0.00 0.01 0.00 94 1011.5
20260831114304 52 0 0.0 0.0 0.00 0.01 0.00 95 1011.5
20260831113750 52 0 0.0 0.0 0.00 0.01 0.00 94 1011.5
20260831113237 52 0 0.0 0.0 0.00 0.01 0.00 95 1011.5
20260831112724 52 0 0.0 0.0 0.00 0.01 0.00 94 1011.6
20260831112211 52 0 0.0 0.0 0.00 0.01 0.00 94 1011.7
20260831111658 52 0 0.0 0.0 0.00 0.01 0.00 95 1011.7
20260831111145 52 0 0.0 0.0 0.00 0.01 0.00 94 1011.6
20260831110632 51 0 0.0 0.0 0.00 0.01 0.00 94 1011.6
20260831110119 51 0 0.0 0.0 0.00 0.01 0.00 94 1011.6
20260831105606 51 0 0.0 0.0 0.00 0.01 0.00 94 1011.8
20260831104540 51 0 0.0 0.0 0.00 0.01 0.00 94 1011.6
20260831104027 52 0 0.0 0.0 0.00 0.01 0.00 94 1011.7
20260831103514 52 0 0.0 0.0 0.00 0.01 0.00 94 1011.6
20260831103001 52 0 0.0 0.0 0.00 0.01 0.00 94 1011.5
20260831102448 52 0 0.0 0.0 0.00 0.01 0.00 94 1011.5
20260831101935 52 0 0.0 0.0 0.00 0.01 0.00 94 1011.5
20260831101422 52 0 0.0 0.0 0.00 0.01 0.00 94 1011.5
20260831100909 52 0 0.0 0.0 0.00 0.01 0.00 94 1011.5
20260831100357 52 0 0.0 0.0 0.00 0.01 0.00 94 1011.6
20260831095843 52 0 0.0 0.0 0.00 0.01 0.00 94 1011.8
20260831094817 52 0 0.0 0.0 0.00 0.01 0.00 94 1011.8
20260831094304 52 0 0.0 0.0 0.00 0.01 0.00 94 1011.8
20260831093751 51 0 0.0 0.0 0.00 0.01 0.00 94 1011.9
20260831093238 51 0 0.0 0.0 0.00 0.01 0.00 94 1012.0
20260831092725 52 0 0.0 0.0 0.00 0.01 0.00 94 1012.0
20260831092212 52 0 0.0 0.0 0.00 0.01 0.00 94 1012.1
20260831091659 52 0 0.0 0.0 0.00 0.01 0.00 93 1012.1
20260831091146 52 0 0.0 0.0 0.00 0.01 0.00 93 1012.2
20260831090633 52 0 0.0 0.0 0.00 0.01 0.00 94 1012.2
20260831090120 52 0 0.0 0.0 0.00 0.01 0.00 93 1012.2
20260831085658 52 0 0.0 0.0 0.00 0.01 0.00 93 1012.3
20260831085607 52 0 0.0 0.0 0.00 0.01 0.00 93 1012.3
20260831084657 53 0 0.0 0.0 0.00 0.01 0.00 93 1012.4
20260831084541 53 0 0.0 0.0 0.00 0.01 0.00 93 1012.4
20260831084028 52 0 0.0 0.0 0.00 0.01 0.00 93 1012.4
20260831083633 52 0 0.0 0.0 0.00 0.01 0.00 93 1012.5
20260831083515 52 0 0.0 0.0 0.00 0.01 0.00 93 1012.5
20260831083002 52 0 0.0 0.0 0.00 0.01 0.00 93 1012.5
20260831082449 52 0 0.0 0.0 0.00 0.01 0.00 93 1012.5
20260831081936 52 0 0.0 0.0 0.00 0.01 0.00 93 1012.7
20260831081423 52 0 0.0 0.0 0.00 0.01 0.00 93 1012.7
20260831080910 52 0 0.0 0.0 0.00 0.01 0.00 93 1012.8
20260831075844 53 0 0.0 0.0 0.00 0.01 0.00 93 1012.9
20260831074818 53 0 0.0 0.0 0.00 0.01 0.01 93 1012.9
20260831074305 53 0 0.0 0.0 0.00 0.01 0.01 93 1013.0
20260831073752 53 0 0.0 0.0 0.00 0.01 0.01 93 1012.9
20260831073239 53 0 0.0 0.0 0.00 0.01 0.01 92 1013.1
20260831072213 53 0 0.0 0.0 0.00 0.01 0.01 92 1013.1
20260831071700 53 0 0.0 0.0 0.00 0.01 0.01 92 1013.1
20260831071147 53 0 0.0 0.0 0.00 0.01 0.01 92 1013.2
20260831070634 53 0 0.0 0.0 0.00 0.01 0.01 92 1013.1
20260831070121 53 0 0.0 0.0 0.00 0.01 0.01 92 1013.3
20260831065608 53 0 0.0 0.0 0.00 0.01 0.01 92 1013.4
20260831065055 53 0 0.0 0.0 0.00 0.01 0.01 92 1013.4
20260831064542 53 0 0.0 0.0 0.00 0.01 0.01 92 1013.5
20260831064029 53 0 0.0 0.0 0.00 0.01 0.01 92 1013.4
20260831063003 53 0 0.0 0.0 0.00 0.01 0.01 92 1013.6
20260831062450 53 0 0.0 0.0 0.00 0.01 0.01 91 1013.6
20260831061424 53 0 0.0 0.0 0.00 0.01 0.01 91 1013.7
20260831060911 53 0 0.0 0.0 0.00 0.01 0.01 91 1013.8
20260831060358 53 0 0.0 0.0 0.00 0.01 0.01 91 1013.8
20260831055845 53 0 0.0 0.0 0.00 0.01 0.01 91 1013.9
20260831054819 53 0 0.0 0.0 0.00 0.01 0.01 90 1014.0
20260831054306 53 0 0.0 0.0 0.00 0.01 0.01 90 1014.1
20260831053753 53 0 0.0 0.0 0.00 0.01 0.01 90 1014.2
20260831053240 54 0 0.0 0.0 0.00 0.01 0.01 90 1014.2
20260831052729 54 0 0.0 0.0 0.00 0.01 0.01 90 1014.3
20260831052214 54 0 0.0 0.0 0.00 0.01 0.01 90 1014.3
20260831051701 54 0 0.0 0.0 0.00 0.01 0.01 89 1014.3
20260831051148 54 0 0.0 0.0 0.00 0.01 0.01 89 1014.4
20260831050635 54 0 0.0 0.0 0.00 0.01 0.01 89 1014.4
20260831050122 54 0 0.0 0.0 0.00 0.01 0.01 89 1014.5
20260831045609 54 0 0.0 0.0 0.00 0.01 0.01 88 1014.5
20260831045056 55 0 0.0 0.0 0.00 0.01 0.01 88 1014.5
20260831044543 55 0 0.0 0.0 0.00 0.01 0.01 88 1014.5
20260831044030 54 0 0.0 0.0 0.00 0.01 0.01 87 1014.6
20260831043517 55 0 0.0 0.0 0.00 0.01 0.01 87 1014.6
20260831043004 55 0 0.0 0.0 0.00 0.01 0.01 87 1014.6
20260831042451 55 0 0.0 0.0 0.00 0.01 0.01 87 1014.7
20260831041938 56 0 0.0 0.0 0.00 0.01 0.01 86 1014.7
20260831041425 56 0 0.0 0.0 0.00 0.01 0.01 86 1014.7
20260831040912 56 0 0.0 0.0 0.00 0.01 0.01 86 1014.7
20260831040359 57 0 0.0 0.0 0.00 0.01 0.01 85 1014.8
20260831035846 57 0 0.0 0.0 0.00 0.01 0.01 85 1014.8
20260831035335 57 0 0.0 0.0 0.00 0.01 0.01 85 1014.7
20260831034820 58 0 0.0 0.0 0.00 0.01 0.01 84 1014.7
20260831034307 57 0 0.0 0.0 0.00 0.01 0.01 84 1014.7
20260831033754 58 0 0.0 0.0 0.00 0.01 0.01 84 1014.6
20260831033241 58 0 0.0 5.2 0.00 0.01 0.01 84 1014.6
20260831032728 58 0 0.0 5.2 0.00 0.01 0.01 84 1014.7
20260831032215 58 0 0.0 5.2 0.00 0.01 0.01 84 1014.7
20260831031702 58 39 0.0 6.1 0.00 0.01 0.01 83 1014.8
20260831031149 59 135 0.0 6.1 0.00 0.01 0.01 83 1014.8
20260831030636 59 0 0.0 6.1 0.00 0.01 0.01 83 1014.9
20260831030124 59 0 0.0 0.0 0.00 0.01 0.01 83 1014.9
20260831025610 59 0 0.0 0.0 0.00 0.01 0.01 83 1014.9
20260831024544 60 113 0.0 6.1 0.00 0.01 0.01 82 1014.9
20260831024031 60 15 1.7 6.1 0.00 0.01 0.01 82 1014.9
20260831023518 61 0 0.0 5.2 0.00 0.01 0.01 82 1014.9
20260831023005 61 0 1.7 9.6 0.00 0.01 0.01 82 1014.9
20260831022452 61 64 2.6 9.6 0.00 0.01 0.01 82 1014.9
20260831021939 62 0 2.6 9.6 0.00 0.01 0.01 81 1015.0
20260831021426 62 91 2.6 8.7 0.00 0.01 0.01 82 1015.1
20260831020913 61 50 4.3 13.0 0.00 0.01 0.01 81 1015.1
20260831020400 62 308 1.7 13.0 0.00 0.01 0.01 81 1015.1
20260831015846 62 100 2.6 13.0 0.00 0.01 0.01 81 1015.1
20260831015335 62 54 6.1 12.2 0.00 0.01 0.01 81 1015.2
20260831014820 62 329 4.3 12.2 0.00 0.01 0.01 81 1015.3
20260831013754 63 22 2.6 12.2 0.00 0.01 0.01 81 1015.4
20260831013241 63 161 2.6 12.2 0.00 0.01 0.01 81 1015.4
20260831012728 62 334 5.2 12.2 0.00 0.01 0.01 81 1015.5
20260831012216 62 169 2.6 13.9 0.00 0.01 0.01 81 1015.5
20260831011702 62 77 3.5 13.9 0.00 0.01 0.01 81 1015.6
20260831010636 63 70 0.9 13.0 0.00 0.01 0.01 80 1015.8
20260831010123 63 36 5.2 13.0 0.00 0.01 0.01 80 1015.9
20260831005610 63 4 5.2 13.0 0.00 0.01 0.01 80 1015.9
20260831005057 63 152 5.2 8.7 0.00 0.01 0.01 79 1016.0
20260831004544 63 26 6.1 11.3 0.00 0.01 0.01 79 1016.1
20260831004031 63 40 3.5 11.3 0.00 0.01 0.01 79 1016.2
20260831003518 63 336 4.3 11.3 0.00 0.01 0.01 79 1016.2
20260831003005 64 320 5.2 11.3 0.00 0.01 0.01 78 1016.3
20260831002452 64 60 6.1 11.3 0.00 0.01 0.01 77 1016.3
20260831001939 64 0 3.5 11.3 0.00 0.01 0.01 78 1016.3
20260831001426 64 127 3.5 9.6 0.00 0.01 0.01 78 1016.3
20260831000913 64 96 5.2 8.7 0.00 0.01 0.01 78 1016.4
20260831000402 64 285 7.0 13.9 0.00 0.01 0.01 78 1016.6
20260830234821 64 47 1.7 9.6 0.00 0.01 0.01 77 1016.6
20260830234310 64 310 4.3 12.2 0.00 0.01 0.01 76 1016.7
20260830233755 64 81 3.5 12.2 0.00 0.01 0.01 76 1016.7
20260830233242 64 135 6.1 12.2 0.00 0.01 0.01 76 1016.8
20260830232729 64 106 5.2 9.6 0.00 0.01 0.01 76 1016.9
20260830232217 64 36 1.7 14.8 0.00 0.01 0.01 77 1016.9
20260830231703 64 28 4.3 14.8 0.00 0.01 0.01 77 1017.1
20260830230637 64 357 4.3 13.9 0.00 0.01 0.01 77 1017.2
20260830230124 64 110 6.1 13.9 0.00 0.01 0.01 77 1017.2
20260830225058 64 53 1.7 13.0 0.00 0.01 0.01 77 1017.3
20260830224545 64 57 6.1 12.2 0.00 0.01 0.01 77 1017.3
20260830223519 64 40 4.3 12.2 0.00 0.01 0.01 76 1017.5
20260830223006 64 46 5.2 10.4 0.00 0.01 0.01 76 1017.6
20260830222453 64 12 4.3 12.2 0.00 0.01 0.01 76 1017.7
20260830221940 64 43 5.2 12.2 0.00 0.01 0.01 75 1017.7
20260830221427 65 109 0.9 12.2 0.00 0.01 0.01 75 1017.8
20260830220401 64 145 3.5 12.2 0.00 0.01 0.01 75 1018.0
20260830215335 65 352 5.2 9.6 0.00 0.01 0.01 75 1018.2
20260830214822 65 28 4.3 13.9 0.00 0.01 0.01 75 1018.2
20260830214310 64 47 6.1 13.9 0.00 0.01 0.01 75 1018.3
20260830213757 64 67 6.1 13.9 0.00 0.01 0.01 75 1018.3
20260830213243 64 71 0.9 10.4 0.00 0.01 0.01 76 1018.4
20260830212730 64 9 5.2 10.4 0.00 0.01 0.01 76 1018.5
20260830212217 64 357 2.6 10.4 0.00 0.01 0.01 77 1018.6
20260830211704 64 107 3.5 10.4 0.00 0.01 0.01 77 1018.6
20260830211151 64 319 4.3 10.4 0.00 0.01 0.01 78 1018.7
20260830210638 64 357 0.9 12.2 0.00 0.01 0.01 78 1018.7
20260830210125 64 40 4.3 12.2 0.00 0.01 0.01 78 1018.6
20260830205612 64 284 1.7 12.2 0.00 0.01 0.01 79 1018.7
20260830205059 63 299 6.1 12.2 0.00 0.01 0.01 79 1018.7
20260830204546 63 56 2.6 12.2 0.00 0.01 0.01 79 1018.8
20260830204033 63 357 4.3 12.2 0.00 0.01 0.01 79 1018.8
20260830203520 64 75 2.6 8.7 0.00 0.01 0.01 78 1018.9
20260830203007 63 119 0.9 7.8 0.00 0.01 0.01 79 1018.9
20260830202454 63 196 0.9 7.8 0.00 0.01 0.01 80 1018.9
20260830201941 63 319 5.2 11.3 0.00 0.01 0.01 78 1018.9
20260830201428 63 79 4.3 11.3 0.00 0.01 0.01 79 1018.9
20260830200915 63 7 2.6 11.3 0.00 0.01 0.01 79 1018.9
20260830200402 62 345 3.5 7.0 0.00 0.01 0.01 80 1018.9
20260830195849 63 25 2.6 11.3 0.00 0.01 0.01 79 1019.0
20260830195337 63 40 4.3 11.3 0.00 0.01 0.01 79 1019.0
20260830194823 63 4 5.2 11.3 0.00 0.01 0.01 79 1019.0
20260830194310 63 72 3.5 8.7 0.00 0.01 0.01 78 1019.0
20260830193757 64 324 2.6 8.7 0.00 0.01 0.01 79 1019.1
20260830193244 64 15 3.5 8.7 0.00 0.01 0.01 79 1019.2
20260830192731 64 37 2.6 7.8 0.00 0.01 0.01 79 1019.2